Glendale Luke AFB, AZ

8:18 AM MST on September 15, 2019 (GMT -0700)
Luke Air Force Base

Weather History for KLUF - July, 2019

Change the Weather History Date:

Wednesday, July 24, 2019

  Actual Average Record
Temperature  
Mean Temperature 88 °F -  
Max Temperature 99 °F 107 °F 115 °F (1931)
Min Temperature 78 °F 75 °F 64 °F (1973)
Cooling Degree Days 24    
Growing Degree Days 38 (Base 50)    
Moisture  
Dew Point 70 °F    
Average Humidity 62    
Maximum Humidity 100    
Minimum Humidity 28    
Precipitation  
Precipitation 0.36 in - - ()
Sea Level Pressure  
Sea Level Pressure 29.91 in    
Wind  
Wind Speed 7 mph (West)    
Max Wind Speed 23 mph    
Max Gust Speed 28 mph    
Visibility 10 miles    
Events Rain , Thunderstorm    
Averages and records for this station are not official NWS values.
T = Trace of Precipitation, MM = Missing Value Source: NWS Daily Summary

Daily Weather History Graph

Daily Weather History Graph

Search for Another Location

Airport or City:

Astronomy

Jul. 24, 2019 Rise Set
Actual Time 5:36 AM MST 7:35 PM MST
Civil Twilight 5:08 AM MST 8:03 PM MST
Nautical Twilight 4:34 AM MST 8:36 PM MST
Astronomical Twilight 3:58 AM MST 9:12 PM MST
Moon No Moon Rise 12:30 PM MST (7/24)
Length of Visible Light 14h 54m
Length of Day
13h 59m
Waning Gibbous, 53% of the Moon is Illuminated
Jul 24
Waning Gibbous
Jul 24
Last Quarter
Jul 31
New
Aug 7
First Quarter
Aug 15
Full

Hourly Weather History & Observations

Time (MST) Temp. Heat Index Dew Point Humidity Pressure Visibility Wind Dir Wind Speed Gust Speed Precip Events Conditions
12:58 AM 95.7 °F 95.1 °F 59.2 °F 29% 29.84 in 10.0 mi SSW 8.1 mph - N/A   Partly Cloudy
1:58 AM 94.1 °F 93.9 °F 60.4 °F 32% 29.84 in 10.0 mi SSW 4.6 mph - N/A   Overcast
2:08 AM 93.2 °F 93.3 °F 60.8 °F 34% 29.84 in 10.0 mi SSW 3.5 mph - N/A   Overcast
2:09 AM 93.2 °F 93.3 °F 60.8 °F 34% 29.84 in 10.0 mi Calm Calm - N/A Rain Light Rain
2:10 AM 93.2 °F 93.3 °F 60.8 °F 34% 29.84 in 10.0 mi Calm Calm - N/A Rain Light Rain
2:20 AM 89.6 °F 96.2 °F 71.6 °F 55% 29.84 in 10.0 mi NW 3.5 mph - N/A Rain Light Rain
2:25 AM 89.6 °F 94.7 °F 69.8 °F 52% 29.84 in 10.0 mi Calm Calm - N/A   Overcast
2:35 AM 89.6 °F 98.2 °F 73.4 °F 59% 29.84 in 10.0 mi Calm Calm - N/A   Mostly Cloudy
2:58 AM 91.4 °F 94.5 °F 66.4 °F 44% 29.84 in 10.0 mi SSE 3.5 mph - 0.01 in   Scattered Clouds
3:18 AM 93.2 °F 94.1 °F 62.6 °F 36% 29.85 in 10.0 mi SSE 8.1 mph - N/A   Mostly Cloudy
3:54 AM 89.6 °F 91.1 °F 64.4 °F 43% 29.86 in 10.0 mi South 21.9 mph - N/A Thunderstorm Thunderstorm
3:58 AM 88.5 °F 91.6 °F 66.9 °F 49% 29.86 in 10.0 mi South 23.0 mph - N/A Thunderstorm Thunderstorm
4:02 AM 86.0 °F 90.4 °F 69.8 °F 58% 29.88 in 10.0 mi South 20.7 mph - N/A Thunderstorm Unknown
4:09 AM 84.2 °F 89.6 °F 71.6 °F 66% 29.88 in 10.0 mi SSE 20.7 mph - N/A Rain Light Rain
4:11 AM 84.2 °F 89.6 °F 71.6 °F 66% 29.89 in 10.0 mi South 19.6 mph - N/A Rain , Thunderstorm Light Thunderstorms and Rain
4:12 AM 82.4 °F 87.2 °F 71.6 °F 70% 29.89 in 10.0 mi South 20.7 mph - N/A Rain , Thunderstorm Light Thunderstorms and Rain
4:17 AM 80.6 °F 84.6 °F 71.6 °F 74% 29.90 in 8.0 mi SSE 18.4 mph - N/A Rain , Thunderstorm Thunderstorms and Rain
4:21 AM 80.6 °F 83.9 °F 69.8 °F 70% 29.90 in 4.0 mi South 12.7 mph 27.6 mph N/A Rain , Thunderstorm Heavy Thunderstorms and Rain
4:31 AM 80.6 °F 83.2 °F 68.0 °F 65% 29.91 in 7.0 mi SW 12.7 mph 24.2 mph N/A Rain , Thunderstorm Light Thunderstorms and Rain
4:33 AM 80.6 °F 83.2 °F 68.0 °F 65% 29.91 in 9.0 mi WSW 15.0 mph 23.0 mph N/A Rain , Thunderstorm Light Thunderstorms and Rain
4:37 AM 80.6 °F 83.9 °F 69.8 °F 70% 29.91 in 10.0 mi West 12.7 mph - N/A Thunderstorm Thunderstorm
4:40 AM 80.6 °F 83.9 °F 69.8 °F 70% 29.91 in 10.0 mi WSW 9.2 mph - N/A Thunderstorm Unknown
4:51 AM 80.6 °F 83.9 °F 69.8 °F 70% 29.92 in 10.0 mi WSW 6.9 mph - N/A Rain , Thunderstorm Light Rain
4:58 AM 80.8 °F 84.6 °F 70.9 °F 72% 29.93 in 10.0 mi West 6.9 mph - 0.23 in Thunderstorm Light Drizzle
5:01 AM 80.6 °F 83.9 °F 69.8 °F 70% 29.93 in 10.0 mi North 6.9 mph - N/A Thunderstorm Partly Cloudy
5:39 AM 82.4 °F 87.2 °F 71.6 °F 70% 29.96 in 10.0 mi Calm Calm - N/A Thunderstorm Thunderstorm
5:48 AM 82.4 °F 87.2 °F 71.6 °F 70% 29.97 in 10.0 mi South 4.6 mph - N/A Rain , Thunderstorm Light Thunderstorms and Rain
5:49 AM 82.4 °F 87.2 °F 71.6 °F 70% 29.97 in 10.0 mi South 4.6 mph - N/A Rain , Thunderstorm Light Thunderstorms and Rain
5:58 AM 81.0 °F 86.0 °F 73.4 °F 78% 29.97 in 3.0 mi West 6.9 mph - 0.10 in Rain , Thunderstorm Heavy Thunderstorms and Rain
6:03 AM 80.6 °F 86.2 °F 75.2 °F 84% 29.97 in 5.0 mi WSW 8.1 mph - N/A Rain Light Rain
6:05 AM 78.8 °F - 75.2 °F 89% 29.97 in 7.0 mi West 9.2 mph - N/A Rain Light Rain
6:07 AM 78.8 °F - 75.2 °F 89% 29.97 in 8.0 mi West 10.4 mph - N/A Rain Light Rain
6:11 AM 78.8 °F - 75.2 °F 89% 29.98 in 10.0 mi NW 9.2 mph - N/A Rain , Thunderstorm Light Thunderstorms and Rain
6:58 AM 78.6 °F - 75.7 °F 91% 30.00 in 10.0 mi NE 3.5 mph - 0.02 in Rain Light Rain
7:12 AM 78.8 °F - 77.0 °F 94% 30.00 in 10.0 mi Calm Calm - N/A   Mostly Cloudy
7:15 AM 78.8 °F - 77.0 °F 94% 30.00 in 10.0 mi North 3.5 mph - N/A   Light Drizzle
7:16 AM 78.8 °F - 77.0 °F 94% 30.00 in 10.0 mi North 3.5 mph - N/A   Mostly Cloudy
7:26 AM 78.8 °F - 75.2 °F 89% 30.00 in 10.0 mi NE 3.5 mph - N/A   Scattered Clouds
7:27 AM 78.8 °F - 75.2 °F 89% 30.00 in 10.0 mi NE 4.6 mph - N/A   Light Drizzle
7:29 AM 78.8 °F - 77.0 °F 94% 30.00 in 10.0 mi NNE 4.6 mph - N/A   Light Drizzle
7:44 AM 78.8 °F - 78.8 °F 100% 30.00 in 10.0 mi North 5.8 mph - N/A   Overcast
7:51 AM 78.8 °F - 77.0 °F 94% 30.00 in 10.0 mi NNW 5.8 mph - N/A   Mostly Cloudy
8:49 AM 78.8 °F - 75.2 °F 89% 29.99 in 10.0 mi NNW 6.9 mph - N/A   Partly Cloudy
8:58 AM 79.3 °F - 74.7 °F 86% 29.99 in 10.0 mi NNW 5.8 mph - 0.00 in   Mostly Cloudy
9:58 AM 83.5 °F 89.1 °F 72.1 °F 69% 29.99 in 10.0 mi NW 3.5 mph - N/A   Mostly Cloudy
10:28 AM 86.0 °F 91.8 °F 71.6 °F 62% 29.98 in 10.0 mi North 3.5 mph - N/A   Scattered Clouds
10:58 AM 87.1 °F 91.6 °F 69.4 °F 56% 29.97 in 10.0 mi NW 3.5 mph - N/A   Partly Cloudy
11:58 AM 89.6 °F 95.7 °F 70.7 °F 54% 29.94 in 10.0 mi NNW 8.1 mph - N/A   Mostly Cloudy
12:58 PM 92.1 °F 96.7 °F 68.9 °F 46% 29.92 in 10.0 mi NW 8.1 mph - N/A   Scattered Clouds
1:58 PM 94.5 °F 96.1 °F 63.3 °F 36% 29.86 in 10.0 mi NW 5.8 mph - N/A   Partly Cloudy
2:58 PM 97.2 °F 98.1 °F 62.2 °F 31% 29.83 in 10.0 mi Calm Calm - N/A   Clear
3:58 PM 97.7 °F 99.5 °F 62.8 °F 32% 29.81 in 10.0 mi WSW 4.6 mph - N/A   Clear
4:58 PM 98.8 °F 100.3 °F 62.8 °F 30% 29.79 in 10.0 mi Calm Calm - N/A   Clear
5:58 PM 99.3 °F 100.1 °F 60.4 °F 28% 29.77 in 10.0 mi WNW 3.5 mph - N/A   Clear
6:58 PM 98.8 °F 100.8 °F 63.7 °F 31% 29.79 in 10.0 mi SW 10.4 mph - N/A   Clear
7:58 PM 94.8 °F 96.7 °F 64.4 °F 36% 29.80 in 10.0 mi WSW 9.2 mph - N/A   Clear
8:58 PM 93.4 °F 95.6 °F 65.3 °F 39% 29.82 in 10.0 mi SW 8.1 mph - N/A   Clear
9:58 PM 92.8 °F 95.2 °F 64.9 °F 40% 29.84 in 10.0 mi SSW 9.2 mph - N/A   Partly Cloudy
10:58 PM 89.8 °F 93.3 °F 67.5 °F 48% 29.83 in 10.0 mi SW 5.8 mph - N/A   Clear
11:58 PM 90.0 °F 92.0 °F 65.7 °F 44% 29.82 in 10.0 mi West 5.8 mph - N/A   Clear